Regional Weather Roundup
Issued by NWS

Home | Current Version | Previous Version | Graphics & Text | Print | Product List | Glossary On
Versions: 1 2 3 4 5 6 7 8 9 10 11 12 13 14 15 16 17 18 19 20 21 22 23 24 25 26 27 28 29 30 31 32 33 34 35 36 37 38 39 40 41 42 43 44 45 46 47 48 49 50
050
ASUS43 KTOP 220659
RWRKS

WEATHER ROUNDUP FOR KANSAS
NATIONAL WEATHER SERVICE GOODLAND KS
200 AM CDT SAT JUL 22 2017

NOTE:  "FAIR" INDICATES FEW OR NO CLOUDS BELOW 12,000 FEET WITH NO
SIGNIFICANT WEATHER AND/OR OBSTRUCTIONS TO VISIBILITY.

KSZ001>006-013>018-027>032-041>047-220800-
NORTHWEST KANSAS

CITY           SKY/WX    TMP DP  RH WIND       PRES   REMARKS
GOODLAND       CLOUDY    73  58  59 NW22G29   30.00S
HAYS           CLEAR     78  58  49 SW9       29.87R
HILL CITY      CLEAR     82  57  42 SW6       29.86S
RUSSELL        CLEAR     85  58  39 SW18      29.85R
$$

KSZ061>065-074>080-084>089-220800-
SOUTHWEST KANSAS

CITY           SKY/WX    TMP DP  RH WIND       PRES   REMARKS
DODGE CITY     CLEAR     80  58  46 S12       29.93S
ELKHART          N/A     74  45  35 S7          N/A
GARDEN CITY    CLEAR     76  55  48 SW9       29.95R
LIBERAL        CLEAR     74  55  51 S9        29.97R
$$

KSZ066>073-081>083-090>101-220800-
SOUTHEAST KANSAS

CITY           SKY/WX    TMP DP  RH WIND       PRES   REMARKS
CHANUTE        CLEAR     83  73  72 S12G18    29.90S
COFFEYVILLE    CLEAR     83  73  72 S12       29.90S
HUTCHINSON     CLEAR     85  62  46 S12       29.88R
MEDICINE LODGE   N/A     83  63  50 SE6       29.90R
NEWTON         CLEAR     86  68  54 S21       29.89S
PARSONS        CLEAR     81  73  76 S7        29.91F
WICHITA INTL   CLEAR     85  69  58 S16       29.88S
WICHITA JABRA  CLEAR     85  70  60 S15G23    29.89S
WINFIELD       CLEAR     84  71  65 S10       29.91S
$$

KSZ007>012-019>026-033>040-048>060-102>105-220800-
NORTHEAST KANSAS

CITY           SKY/WX    TMP DP  RH WIND       PRES   REMARKS
CONCORDIA      CLEAR     83  62  49 S14G23    29.80R
EMPORIA        CLEAR     82  71  69 S17G26    29.86S
LAWRENCE       CLEAR     85  73  67 S10G20    29.82S
MANHATTAN      CLEAR     87  69  54 SW20      29.79F
OLATHE IND     CLEAR     83  71  67 S16       29.84F
OLATHE EXE     CLEAR     82  73  74 S15G21    29.85F
SALINA         CLEAR     88  63  43 S15G25    29.83R
TOPEKA BILLARD CLEAR     86  73  65 S14G23    29.80F
TOPEKA FORBES  CLEAR     85  73  67 S15       29.82F
$$




USA.gov is the U.S. government's official web portal to all federal, state and local government web resources and services.